Weather History for Guymon, OK

Change the Weather History Date:

Wednesday, May 15, 2013

  Actual Average Record
Temperature  
Mean Temperature 73 °F 65 °F  
Max Temperature 91 °F 79 °F 93 °F (2001)
Min Temperature 54 °F 50 °F 39 °F (2014)
Degree Days  
Heating Degree Days 0 3  
Month to date heating degree days 97 66  
Since 1 July heating degree days 4310 4419  
Cooling Degree Days 8 3  
Month to date cooling degree days 33 29  
Year to date cooling degree days 58 44  
Growing Degree Days 22 (Base 50)    
Moisture  
Dew Point 43 °F    
Average Humidity 40    
Maximum Humidity 64    
Minimum Humidity 15    
Precipitation  
Precipitation 0.00 in 0.08 in 0.88 in (2003)
Month to date precipitation 0.13 0.91  
Year to date precipitation 2.32 4.72  
Snow  
Snow 0.00 in - - ()
Month to date snowfall 0.3  
Since 1 July snowfall 22.3  
Snow Depth 0.00 in    
Sea Level Pressure  
Sea Level Pressure 29.68 in    
Wind  
Wind Speed 12 mph (South)    
Max Wind Speed 20 mph    
Max Gust Speed 25 mph    
Visibility 10 miles    
Events      
T = Trace of Precipitation, MM = Missing Value Source: NWS Daily Summary

Daily Weather History Graph

Daily Weather History Graph

Search for Another Location

Airport:

Trip Planner

Search our weather history database for the weather conditions in past years. The results will help you decide how hot, cold, wet, or windy it might be!

Date:

Astronomy

May. 15, 2013 Rise Set
Actual Time 6:38 AM CDT 8:46 PM CDT
Civil Twilight 6:09 AM CDT 9:15 PM CDT
Nautical Twilight 5:34 AM CDT 9:51 PM CDT
Astronomical Twilight 4:56 AM CDT 10:29 PM CDT
Moon 11:14 AM CDT (5/15) 12:35 AM CDT (5/15)
Length of Visible Light 15h 06m
Length of Day
14h 08m
Waxing Crescent, 27% of the Moon is Illuminated
May 15
Waxing Crescent
May 17
First Quarter
May 24
Full
May 31
Last Quarter
Jun 8
New

Hourly Weather History & Observations

Time (CDT) Temp. Dew Point Humidity Pressure Visibility Wind Dir Wind Speed Gust Speed Precip Events Conditions
12:53 AM 68.0 °F 37.0 °F 32% 29.72 in 10.0 mi South 11.5 mph - N/A   Clear
1:53 AM 64.9 °F 39.0 °F 39% 29.73 in 10.0 mi South 13.8 mph - N/A   Clear
2:53 AM 64.0 °F 39.0 °F 40% 29.74 in 10.0 mi WSW 9.2 mph - N/A   Clear
3:53 AM 62.1 °F 39.0 °F 43% 29.72 in 10.0 mi SSW 11.5 mph - N/A   Clear
4:53 AM 60.1 °F 41.0 °F 49% 29.71 in 10.0 mi SSW 12.7 mph - N/A   Clear
5:53 AM 57.0 °F 41.0 °F 55% 29.71 in 10.0 mi SSW 10.4 mph - N/A   Clear
6:53 AM 54.0 °F 41.0 °F 62% 29.73 in 10.0 mi South 8.1 mph - N/A   Clear
7:53 AM 59.0 °F 43.0 °F 55% 29.73 in 10.0 mi SSW 10.4 mph - N/A   Clear
8:53 AM 66.9 °F 44.1 °F 44% 29.73 in 10.0 mi SSW 17.3 mph - N/A   Clear
9:53 AM 73.0 °F 44.1 °F 35% 29.72 in 10.0 mi SSW 15.0 mph - N/A   Clear
10:53 AM 79.0 °F 43.0 °F 28% 29.70 in 10.0 mi WSW 9.2 mph - N/A   Clear
11:53 AM 81.0 °F 43.0 °F 26% 29.69 in 10.0 mi South 9.2 mph - N/A   Clear
12:53 PM 84.0 °F 44.1 °F 25% 29.67 in 10.0 mi South 12.7 mph - N/A   Clear
1:53 PM 88.0 °F 42.1 °F 20% 29.64 in 10.0 mi South 13.8 mph 19.6 mph N/A   Clear
2:53 PM 89.1 °F 35.1 °F 15% 29.62 in 10.0 mi South 8.1 mph - N/A   Clear
3:53 PM 89.1 °F 41.0 °F 19% 29.61 in 10.0 mi SSE 13.8 mph 21.9 mph N/A   Clear
4:53 PM 87.1 °F 42.1 °F 21% 29.60 in 10.0 mi SE 12.7 mph - N/A   Clear
5:53 PM 87.1 °F 44.1 °F 22% 29.61 in 10.0 mi SE 13.8 mph 18.4 mph N/A   Clear
6:53 PM 86.0 °F 45.0 °F 24% 29.62 in 10.0 mi SE 11.5 mph - N/A   Clear
7:53 PM 84.0 °F 45.0 °F 25% 29.62 in 10.0 mi ESE 10.4 mph - N/A   Clear
8:53 PM 79.0 °F 48.0 °F 34% 29.64 in 10.0 mi ESE 13.8 mph 19.6 mph N/A   Clear
9:53 PM 73.0 °F 53.1 °F 49% 29.67 in 10.0 mi SE 12.7 mph - N/A   Clear
10:53 PM 71.1 °F 52.0 °F 51% 29.70 in 10.0 mi SE 10.4 mph - N/A   Clear
11:53 PM 68.0 °F 54.0 °F 61% 29.70 in 10.0 mi SE 8.1 mph - N/A   Clear